When you browse on this site, cookies collect data to enhance your experience and personalize the content and advertising you see.
Visit our Privacy Policy to learn more. By continuing to use the site, you agree to this use of cookies and data.
  • In Hungary
  • List of Countries
  • For 7 days
  • Water Temperature
  • Weather Map
  • News
  • Weather Widgets
  • user-avatar
    Login

    Hourly Weather Khitar

    Today, 13 December, Friday

    Time Temperature Precipitation Wind Pressure Humidity
    00:00 -2°C° 0 mm 4 mps 675 mmHg 100%
    01:00 -2°C° 0 mm 4 mps 674 mmHg 100%
    02:00 0°C° 0 mm 1 mps 673 mmHg 99%
    03:00 -2°C° 0 mm 2 mps 674 mmHg 97%
    04:00 -2°C° 0 mm 2 mps 672 mmHg 100%
    05:00 -2°C° 0 mm 3 mps 672 mmHg 99%
    06:00 -4°C° 0 mm 5 mps 671 mmHg 98%
    07:00 -4°C° 0 mm 6 mps 671 mmHg 100%
    08:00 -3°C° 0 mm 6 mps 671 mmHg 100%
    09:00 -3°C° 0.1 mm 7 mps 671 mmHg 100%
    10:00 -3°C° 0.2 mm 7 mps 670 mmHg 100%
    11:00 -3°C° 0.2 mm 6 mps 670 mmHg 100%
    12:00 -3°C° 0.3 mm 6 mps 670 mmHg 100%
    13:00 -2°C° 0.2 mm 6 mps 669 mmHg 100%
    14:00 -2°C° 0.1 mm 6 mps 669 mmHg 100%
    15:00 -2°C° 0.3 mm 6 mps 669 mmHg 100%
    16:00 -1°C° 0.3 mm 5 mps 668 mmHg 100%
    17:00 -1°C° 0.2 mm 5 mps 668 mmHg 100%
    18:00 -1°C° 0.1 mm 5 mps 668 mmHg 100%
    19:00 -1°C° 0.1 mm 5 mps 669 mmHg 100%
    20:00 -1°C° 0 mm 5 mps 669 mmHg 100%
    21:00 -1°C° 0 mm 4 mps 669 mmHg 100%
    22:00 -1°C° 0 mm 4 mps 669 mmHg 100%
    23:00 -1°C° 0 mm 4 mps 669 mmHg 100%

    Tomorrow, 14 December, Saturday

    Time Temperature Precipitation Wind Pressure Humidity
    00:00 -1°C° 0 mm 4 mps 669 mmHg 100%
    01:00 -1°C° 0 mm 5 mps 670 mmHg 100%
    02:00 -1°C° 0 mm 5 mps 669 mmHg 100%
    03:00 -1°C° 0 mm 5 mps 669 mmHg 100%
    04:00 -1°C° 0 mm 5 mps 669 mmHg 100%
    05:00 -2°C° 0 mm 4 mps 669 mmHg 100%
    06:00 -2°C° 0 mm 4 mps 669 mmHg 100%
    07:00 -1°C° 0 mm 3 mps 670 mmHg 100%
    08:00 -1°C° 0 mm 3 mps 670 mmHg 100%
    09:00 -2°C° 0 mm 4 mps 671 mmHg 100%
    10:00 -1°C° 0 mm 4 mps 671 mmHg 100%
    11:00 0°C° 0 mm 5 mps 672 mmHg 100%
    12:00 +1°C° 0 mm 5 mps 672 mmHg 100%
    13:00 +1°C° 0 mm 5 mps 673 mmHg 100%
    14:00 +1°C° 0 mm 5 mps 673 mmHg 100%
    15:00 +1°C° 0 mm 4 mps 673 mmHg 100%
    16:00 +1°C° 0 mm 4 mps 673 mmHg 100%
    17:00 0°C° 0 mm 5 mps 674 mmHg 100%
    18:00 -1°C° 0.1 mm 6 mps 674 mmHg 100%
    19:00 -1°C° 0.6 mm 6 mps 674 mmHg 100%
    20:00 -1°C° 1.3 mm 6 mps 675 mmHg 100%
    21:00 -1°C° 0.5 mm 6 mps 675 mmHg 100%
    22:00 -2°C° 0.4 mm 6 mps 676 mmHg 100%
    23:00 -2°C° 0.1 mm 5 mps 677 mmHg 100%

    Day after tomorrow, 15 December, Sunday

    Time Temperature Precipitation Wind Pressure Humidity
    00:00 -2°C° 0.2 mm 5 mps 678 mmHg 100%
    01:00 -2°C° 0.1 mm 4 mps 678 mmHg 100%
    02:00 -4°C° 0 mm 5 mps 678 mmHg 100%
    03:00 -4°C° 0 mm 5 mps 679 mmHg 100%
    04:00 -5°C° 0 mm 5 mps 679 mmHg 100%
    05:00 -5°C° 0 mm 5 mps 679 mmHg 100%
    06:00 -5°C° 0 mm 5 mps 679 mmHg 100%
    07:00 -4°C° 0 mm 6 mps 680 mmHg 100%
    08:00 -4°C° 0 mm 6 mps 680 mmHg 100%
    09:00 -3°C° 0 mm 6 mps 681 mmHg 100%
    10:00 -3°C° 0 mm 6 mps 681 mmHg 100%
    11:00 -3°C° 0 mm 6 mps 681 mmHg 100%
    12:00 -3°C° 0 mm 6 mps 682 mmHg 100%
    13:00 -3°C° 0 mm 6 mps 682 mmHg 100%
    14:00 -3°C° 0 mm 7 mps 683 mmHg 100%
    15:00 -3°C° 0 mm 7 mps 683 mmHg 100%
    16:00 -4°C° 0 mm 8 mps 682 mmHg 100%
    17:00 -4°C° 0 mm 8 mps 683 mmHg 100%
    18:00 -2°C° 0 mm 8 mps 683 mmHg 100%
    19:00 -2°C° 0 mm 8 mps 683 mmHg 99%
    20:00 -1°C° 0 mm 8 mps 683 mmHg 94%
    21:00 -1°C° 0 mm 6 mps 684 mmHg 93%
    22:00 -1°C° 0 mm 5 mps 684 mmHg 94%
    23:00 -1°C° 0 mm 5 mps 684 mmHg 95%

    16 December, Monday

    Time Temperature Precipitation Wind Pressure Humidity
    00:00 -1°C° 0 mm 5 mps 684 mmHg 94%
    01:00 -1°C° 0 mm 5 mps 684 mmHg 95%
    02:00 -1°C° 0 mm 4 mps 685 mmHg 98%
    03:00 -2°C° 0 mm 4 mps 685 mmHg 100%
    04:00 -2°C° 0 mm 4 mps 685 mmHg 100%
    05:00 -2°C° 0 mm 4 mps 685 mmHg 100%
    06:00 -1°C° 0 mm 4 mps 685 mmHg 100%
    07:00 0°C° 0 mm 3 mps 686 mmHg 100%
    08:00 0°C° 0 mm 3 mps 686 mmHg 100%
    09:00 0°C° 0 mm 3 mps 686 mmHg 100%
    10:00 0°C° 0 mm 3 mps 686 mmHg 100%
    11:00 0°C° 0 mm 4 mps 686 mmHg 100%
    12:00 0°C° 0 mm 4 mps 687 mmHg 100%
    13:00 +1°C° 0 mm 4 mps 686 mmHg 100%
    14:00 +1°C° 0 mm 5 mps 686 mmHg 100%
    15:00 +1°C° 0 mm 4 mps 686 mmHg 100%
    16:00 +1°C° 0 mm 4 mps 686 mmHg 100%
    17:00 +1°C° 0 mm 4 mps 686 mmHg 100%
    18:00 +1°C° 0 mm 5 mps 686 mmHg 100%
    19:00 +1°C° 0 mm 5 mps 686 mmHg 100%
    20:00 0°C° 0 mm 5 mps 686 mmHg 100%
    21:00 0°C° 0 mm 5 mps 686 mmHg 100%
    22:00 0°C° 0 mm 5 mps 685 mmHg 100%
    23:00 0°C° 0 mm 5 mps 685 mmHg 100%

    17 December, Tuesday

    Time Temperature Precipitation Wind Pressure Humidity
    00:00 0°C° 0 mm 5 mps 685 mmHg 100%
    01:00 -1°C° 0 mm 6 mps 685 mmHg 100%
    02:00 -1°C° 0 mm 6 mps 684 mmHg 100%

    18 December, Wednesday

    Time Temperature Precipitation Wind Pressure Humidity
    Show more